Погода в Верёе

Норвегия     67°39′51″N   12°41′36″E
темп.,
°C
ветер,
м/с
пор.,
м/с
влажн.,
%
обл.,
%
осадки,
мм/ч
давл.,
гПа
погр.,
м
23 апреля, пт
пт2323:00+3с9963100 0.5 10171190
02:00+3с98559 0.6 10181580
05:00+2ссз675282 0.0 10191516
08:00+2ссз776095 0.3 10201222
11:00+2с8864100 0.9 10211197
14:00+3ссв995259 1.1 10221644
17:00+3ссв9105669 0.0 10241691
20:00+3ссв10105766 0.1 10251706
24 апреля, сб
сб2423:00+3с10105267 0.1 10261927
02:00+2с10106399 0.3 10261183
05:00+2с101063100 0.7 10261384
08:00+2с9959100 1.1 10271455
11:00+2с1096199 0.4 10271305
14:00+3с9106698 0.6 10271156
17:00+3с91063100 0.6 10271337
20:00+3ссв91064100 1.1 10281397
25 апреля, вс
вс2523:00+2с9108498 0.6 1028823
02:00+2с101078100 1.5 10291081
05:00+3с996199 0.3 10291338
08:00+3с775862 0.3 10281216
11:00+3с665768 0.0 10281182
14:00+3с665652 0.0 10281159
17:00+3с775793 0.0 10281359
20:00+3с675983 0.0 10271297
26 апреля, пн
пн2623:00+3с555970 0.0 10271207
02:00+3с446163 0.1 10261032
05:00+3сз446383 0.0 1025922
08:00+3с456864 0.3 1023813
11:00+4ссз3462100 0.1 1022961
14:00+4ссз4464100 0.3 1021898
17:00+4сз3463100 0.1 1020952
20:00+2сз4497100 0.5 1019267
27 апреля, вт
вт2723:00+3с358042 0.1 1019508
02:00+3ссв777952 0.4 1019777
05:00+3ссв677010 0.1 1019892
08:00+3св8964100 0.2 10191025
11:00+3с6761100 0.2 10181225
14:00+3ссв6660100 0.4 10171204
17:00+3с6665100 0.2 10171010
20:00+3ссв665796 0.2 10161220